Flag for Netherlands Weather past 2 weeks in Rotterdam, Netherlands

Now
54 °F

Sprinkles. Overcast.


Feels Like: 47 °F
Forecast: 44 / 48 °F
Wind: 28 mph from Southwest

Location: Rotterdam Zestienhoven Airport

Current Time: Dec 19, 2014 at 5:44:08 AM

Latest Report: Dec 19, 2014 at 4:55 AM


Visibility: 4 mi

Pressure: 29.77 "Hg

Humidity: 94%

Dew point: 52 °F

Location of RotterdamLocation

Historic Weather in Rotterdam — Graph

°F

Rotterdam temperature yesterday

Maximum temperature yesterday: 54 °F (at 10:25 AM)
Minimum temperature yesterday: 50 °F (at 12:25 AM)
Average temperature yesterday: 53 °F

Past Weeks' High & Low Weather Summary

 TemperatureHumidityPressure
High54 °F (Dec 18, 10:25 AM)100% (Dec 5, 5:55 PM)30.33 "Hg (Dec 5, 5:55 PM)
Low28 °F (Dec 4, 4:25 AM)62% (Dec 10, 12:25 PM)29.30 "Hg (Dec 12, 8:25 AM)
Average42 °F88%29.91 "Hg
* Reported Dec 4 4:25 AM — Dec 19 4:25 AM, Rotterdam, Weather by CustomWeather, © 2014

Note: Actual official high and low records may vary slightly from our data, if they occured in-between our weather recording intervals... More about our weather records

Advertising

Rotterdam weather history for previous 24 hours

 ConditionsComfort  
Time TempWeatherWind HumidityBarometerVisibility
4:25 AM
Dec 19
54 °FRain showers. Mostly cloudy.31 mph94%29.77 "Hg4 mi
3:55 AM54 °FOvercast.29 mph88%29.77 "HgN/A
3:25 AM54 °FOvercast.31 mph88%29.80 "HgN/A
2:55 AM54 °FLow clouds.29 mph88%29.80 "Hg6 mi
2:25 AM54 °FMostly cloudy.28 mph88%29.80 "HgN/A
1:55 AM54 °FOvercast.30 mph88%29.80 "HgN/A
1:25 AM54 °FMostly cloudy.29 mph88%29.80 "HgN/A
12:25 AM54 °FMostly cloudy.26 mph88%29.80 "HgN/A
11:55 PM
Dec 18
54 °FMostly cloudy.25 mph88%29.80 "HgN/A
11:25 PM54 °FPartly cloudy.26 mph88%29.80 "HgN/A
10:55 PM54 °FPassing clouds.29 mph88%29.80 "HgN/A
10:25 PM54 °FMostly cloudy.29 mph88%29.80 "HgN/A
9:25 PM54 °FMostly cloudy.28 mph94%29.80 "HgN/A
8:55 PM54 °FMostly cloudy.30 mph94%29.80 "Hg4 mi
8:25 PM54 °FOvercast.29 mph88%29.80 "HgN/A
7:55 PM54 °FOvercast.26 mph88%29.80 "HgN/A
6:55 PM54 °FMostly cloudy.29 mph88%29.80 "HgN/A
6:25 PM54 °FMostly cloudy.26 mph88%29.80 "HgN/A
5:55 PM54 °FMostly cloudy.30 mph88%29.80 "HgN/A
5:25 PM54 °FMostly cloudy.30 mph88%29.77 "HgN/A
4:55 PM52 °FMostly cloudy.29 mph94%29.77 "HgN/A
4:25 PM52 °FLow clouds.30 mph94%29.77 "HgN/A
3:25 PM54 °FLow clouds.24 mph94%29.77 "HgN/A
2:55 PM54 °FCloudy.23 mph94%29.77 "HgN/A
2:25 PM54 °FPartly sunny.22 mph94%29.77 "HgN/A
1:55 PM54 °FMore clouds than sun.22 mph94%29.77 "HgN/A
1:25 PM54 °FCloudy.22 mph94%29.77 "HgN/A
12:55 PM54 °FMostly cloudy.21 mph94%29.77 "HgN/A
12:25 PM54 °FMostly cloudy.21 mph94%29.80 "HgN/A
11:25 AM54 °FCloudy.18 mph94%29.80 "HgN/A
10:55 AM54 °FMostly cloudy.17 mph94%29.80 "Hg6 mi
10:25 AM54 °FPartly sunny.18 mph94%29.77 "HgN/A
9:55 AM52 °FCloudy.16 mph100%29.77 "Hg4 mi
9:25 AM52 °FMostly cloudy.14 mph100%29.77 "Hg5 mi
8:55 AM52 °FLow clouds.15 mph100%29.77 "HgN/A
8:25 AM52 °FMostly cloudy.15 mph100%29.77 "HgN/A
7:55 AM52 °FDrizzle. Mostly cloudy.15 mph100%29.77 "Hg3 mi
7:25 AM52 °FLight rain. Mostly cloudy.14 mph94%29.77 "Hg5 mi
6:55 AM52 °FOvercast.14 mph94%29.74 "Hg6 mi
6:25 AM52 °FMostly cloudy.13 mph94%29.74 "Hg4 mi
5:55 AM52 °FLow clouds.14 mph94%29.74 "HgN/A
5:25 AM52 °FPartly cloudy.12 mph94%29.74 "Hg2 mi
Weather by CustomWeather, © 2014

See weather overviewHow to use our weather pages